Location: Friaudour
(46.0460°N, 1.2873°E)
Time: 14:38:50
(UTC+00:00)

Spot 4 Rocket - Pass Details

Date: 30 October 2020
Orbit: 776 x 781 km, 98.7° (Epoch: 29 November)

Event Time Altitude Azimuth Distance (km) Brightness Sun altitude
Rises 03:36:38 0° 11° (N) 3,270 7.5 -31.0°
Reaches altitude 10° 03:38:58 10° 8° (N) 2,338 6.7 -30.6°
Enters shadow 03:40:59 24° 2° (N) 1,577 5.7 -30.2°
